Location: Ferintosh
(52.7647°N, 112.9692°W)
Time: 15:13:04
(UTC+00:00)

Transit 2A - Pass Details

Date: 23 May 2024
Orbit: 592 x 959 km, 66.7° (Epoch: 23 June)

Event Time Altitude Azimuth Distance (km) Brightness Sun altitude
Rises 16:15:43 0° 309° (NW) 3,444 8.9 41.2°
Reaches altitude 10° 16:19:30 10° 284° (WNW) 2,572 8.4 41.8°
Maximum altitude 16:22:14 13° 257° (WSW) 2,366 8.3 42.1°
Drops below altitude 10° 16:25:03 10° 229° (SW) 2,642 8.7 42.5°
Sets 16:29:04 0° 205° (SSW) 3,616 9.5 43.1°
